CAT,Max TemperatureF,Mean TemperatureF,Min TemperatureF,Max Dew PointF,MeanDew PointF,Min DewpointF,Max Humidity, Mean Humidity, Min Humidity, Max Sea Level PressureIn, Mean Sea Level PressureIn, Min Sea Level PressureIn, Max VisibilityMiles, Mean VisibilityMiles, Min VisibilityMiles, Max Wind SpeedMPH, Mean Wind SpeedMPH, Max Gust SpeedMPH,PrecipitationIn, CloudCover, Events, WindDirDegrees
2013-3-1,90,78,67,68,59,55,74,50,30,30.01,29.97,29.92,6,6,6,16,7,,0.00,2,Thunderstorm,196
2013-3-2,90,78,66,65,63,61,94,59,33,30.15,30.07,29.98,6,6,6,21,9,,0.00,6,Thunderstorm,107
2013-3-3,85,76,66,64,61,59,88,60,34,30.21,30.15,30.09,6,6,6,18,10,,0.00,3,,111
2013-3-4,86,74,61,64,62,61,88,65,37,30.24,30.17,30.09,6,6,6,16,9,,0.00,4,,107
2013-3-5,86,76,66,64,63,61,88,69,38,30.21,30.14,30.04,6,6,6,18,11,,0.00,5,,103
2013-3-6,93,76,59,63,58,54,94,56,22,30.12,30.03,29.92,6,6,6,17,4,,0.00,2,,120
2013-3-7,96,80,63,66,59,55,83,48,22,30.04,29.96,29.86,6,6,6,17,6,,0.00,2,Thunderstorm,344
2013-3-8,92,78,65,73,62,56,94,61,33,30.06,29.98,29.89,6,6,5,18,7,,0.00,3,Rain-Thunderstorm,311
2013-3-9,91,80,68,73,67,64,94,67,34,30.09,30.02,29.92,6,6,6,10,5,,0.00,2,,175
2013-3-10,77,73,69,70,65,61,88,73,56,30.24,30.13,30.04,6,6,6,24,13,,0.00,6,,99
2013-3-11,71,67,63,61,60,59,94,77,59,30.30,30.22,30.18,6,6,6,22,14,,0.00,8,Rain,98
2013-3-12,80,71,62,59,55,52,88,56,31,30.24,30.17,30.09,6,6,6,18,11,,0.00,4,,102
2013-3-13,84,70,57,57,55,54,94,52,30,30.15,30.09,30.04,6,6,6,20,7,,0.00,1,,91
2013-3-14,81,71,61,59,55,52,94,60,29,30.18,30.15,30.12,6,6,6,21,8,,0.00,3,,92
2013-3-15,83,71,59,57,53,50,82,52,26,30.18,30.10,29.98,6,6,6,16,8,,0.00,1,,88
2013-3-16,92,74,57,59,55,52,88,54,26,30.12,30.04,29.95,6,6,6,7,4,,0.00,2,,10
2013-3-17,95,78,60,61,55,39,88,48,16,30.04,29.99,29.92,6,6,6,15,6,,0.00,1,Thunderstorm,320
2013-3-18,98,82,66,59,53,39,68,41,15,29.98,29.93,29.86,6,6,6,14,6,,0.00,1,,299
2013-3-19,94,82,69,68,60,54,88,46,22,29.98,29.93,29.86,6,6,6,15,8,,0.00,2,,120
2013-3-20,89,79,69,65,58,54,72,49,29,30.12,30.05,29.95,6,6,6,17,8,,0.00,4,,101
2013-3-21,88,75,62,63,60,57,94,58,27,30.21,30.13,30.04,6,6,6,13,8,,0.00,2,,109
2013-3-22,90,76,61,61,59,54,94,60,27,30.12,30.05,29.98,6,6,6,17,6,,0.00,4,,117
2013-3-23,89,73,57,55,53,48,88,51,26,30.09,30.01,29.95,,,,10,4,,0.00,,,119
2013-3-24,90,74,58,61,53,39,77,46,29,30.09,30.02,29.98,6,6,6,10,4,,0.00,3,,120
2013-3-25,92,77,62,57,52,44,72,42,20,30.12,30.06,29.98,6,6,6,18,6,,0.00,2,,105
2013-3-26,85,76,67,61,57,55,73,53,32,30.21,30.12,30.06,6,6,6,16,11,,0.00,3,,97
2013-3-27,87,77,67,61,58,54,78,55,32,30.18,30.12,30.06,6,6,6,18,9,,0.00,4,,103
2013-3-28,84,73,62,59,57,39,82,58,17,30.21,30.16,30.09,6,6,6,14,8,,0.00,2,,108
2013-3-29,88,76,64,61,57,55,77,54,30,30.21,30.13,30.06,6,6,6,22,9,,0.00,2,,96
2013-3-30,88,76,63,61,59,55,88,55,27,30.15,30.09,30.04,6,6,6,16,8,,0.00,3,,94
2013-3-31,86,76,66,61,58,55,68,54,35,30.21,30.13,30.06,6,6,6,17,12,,0.00,4,,94